Flag for Venezuela Weather past 2 weeks in San Cristóbal, Venezuela

Now
77 °F

Passing clouds.


Feels Like: 78 °F
Forecast: 56 / 86 °F
Wind: N/A

Location: San Antonio Del Tachira Airport

Current Time: Dec 22, 2014 at 12:36:54 AM

Latest Report: Dec 21, 2014 at 10:30 PM


Visibility: N/A

Pressure: 29.98 "Hg

Humidity: 94%

Dew point: 75 °F

Location of San CristóbalLocation

Historic Weather in San Cristóbal — Graph

°F

San Cristóbal temperature yesterday

Maximum temperature yesterday: 91 °F (at 12:30 PM)
Minimum temperature yesterday: 72 °F (at 6:30 AM)
Average temperature yesterday: 82 °F

Past Weeks' High & Low Weather Summary

 TemperatureHumidityPressure
High95 °F (Dec 12, 1:30 PM)100% (Dec 9, 4:30 AM)30.04 "Hg (Dec 9, 4:30 AM)
Low72 °F (Dec 8, 7:30 AM)34% (Dec 10, 11:30 AM)29.80 "Hg (Dec 7, 4:30 PM)
Average81 °F69%29.92 "Hg
* Reported Dec 7 10:30 AM — Dec 21 10:30 PM, San Cristóbal, Weather by CustomWeather, © 2014

Note: Actual official high and low records may vary slightly from our data, if they occured in-between our weather recording intervals... More about our weather records

Advertising

San Cristóbal weather history for previous 24 hours

 ConditionsComfort  
Time TempWeatherWind HumidityBarometerVisibility
10:30 PM
Dec 21
77 °FPassing clouds.N/A94%29.98 "HgN/A
9:30 PM79 °FPassing clouds.N/A89%29.95 "HgN/A
8:30 PM79 °FPassing clouds.N/A89%29.95 "HgN/A
7:30 PM79 °FPassing clouds.N/A84%29.92 "HgN/A
6:30 PM82 °FPassing clouds.N/A74%29.95 "HgN/A
5:30 PM86 °FPassing clouds.N/A55%29.89 "HgN/A
4:30 PM86 °FPartly sunny.N/A59%29.86 "HgN/A
3:30 PM84 °FPartly sunny.N/A55%29.89 "HgN/A
2:30 PM90 °FBroken clouds.N/A52%29.92 "HgN/A
1:30 PM91 °FBroken clouds.N/A36%29.92 "HgN/A
12:30 PM91 °FBroken clouds.N/A36%29.95 "HgN/A
11:30 AM90 °FBroken clouds.N/A46%29.98 "HgN/A
10:30 AM84 °FBroken clouds.N/A55%29.98 "HgN/A
9:30 AM81 °FBroken clouds.N/A58%30.01 "HgN/A
8:30 AM77 °FBroken clouds.N/A69%29.98 "HgN/A
7:30 AM75 °FPartly sunny.N/A78%29.92 "HgN/A
6:30 AM72 °FPartly sunny.N/A94%29.95 "HgN/A
1:30 AM75 °FPassing clouds.N/A83%29.95 "HgN/A
Weather by CustomWeather, © 2014

See weather overviewHow to use our weather pages